Regional Weather Roundup
Issued by NWS Charleston, WV

Home | Current Version | Previous Version | Text Only | Print | Product List | Glossary Off
Versions: 1 2 3 4 5 6 7 8 9 10 11 12 13 14 15 16 17 18 19 20 21 22 23 24 25 26 27 28 29 30 31 32 33 34 35 36 37 38 39 40 41 42 43 44 45 46 47 48 49 50

000
ASUS41 KRLX 251810
RWRRLX
West Virginia Regional Weather Roundup
National Weather Service Charleston WV
200 PM EDT SAT APR 25 2015

Note: "fair" indicates few or no clouds below 12,000 feet with no
significant weather and/or obstructions to visibility.

WVZ003-251900-
Northern Panhandle of West Virginia

CITY           SKY/WX    TMP DP  RH WIND       PRES   REMARKS
WHEELING       CLOUDY    51  31  46 NE12      29.80F
$$

WVZ009-251900-
Northwest West Virginia

CITY           SKY/WX    TMP DP  RH WIND       PRES   REMARKS
PARKERSBURG    LGT RAIN  49  29  46 VRB6      29.78F
$$

WVZ006-251900-
Western West Virginia

CITY           SKY/WX    TMP DP  RH WIND       PRES   REMARKS
HUNTINGTON     RAIN      49  48  97 NE7       29.70F FOG
$$

WVZ015-251900-
West Central West Virginia

CITY           SKY/WX    TMP DP  RH WIND       PRES   REMARKS
CHARLESTON     RAIN      48  46  93 NE6       29.72F FOG
$$

WVZ022-031-251900-
North Central West Virginia

CITY           SKY/WX    TMP DP  RH WIND       PRES   REMARKS
CLARKSBURG     CLOUDY    50  29  44 E5        29.77F
MORGANTOWN     CLOUDY    50  28  42 N8        29.80F
$$

WVZ025-035-042-045-251900-
Southern West Virginia

CITY           SKY/WX    TMP DP  RH WIND       PRES   REMARKS
BECKLEY        LGT RAIN  43  39  86 SE8G17    29.73F FOG
LOGAN          CLOUDY    48  46  93 VRB6      29.66F FOG
BLUEFIELD      LGT RAIN  43  37  79 VRB5      29.76F
LEWISBURG      LGT RAIN  44  39  85 E6        29.77F
$$

WVZ047-251900-
Northern Mountains of West Virginia

CITY           SKY/WX    TMP DP  RH WIND       PRES   REMARKS
ELKINS         CLOUDY    48  33  56 SE5       29.79F
$$

WVZ052-251900-
Eastern Panhandle of West Virginia

CITY           SKY/WX    TMP DP  RH WIND       PRES   REMARKS
MARTINSBURG    CLOUDY    50  27  40 SW5       29.87F
PETERSBURG     CLOUDY    47  24  40 CALM      29.85F
$$


USA.gov is the U.S. government's official web portal to all federal, state and local government web resources and services.